Chignik, AK

9:17 AM AKDT on April 24, 2018 (GMT -0800)
Chignik

Weather History for PAJC - November, 2013

Change the Weather History Date:

Monday, November 11, 2013

  Actual Average Record
Temperature  
Mean Temperature 34 °F -  
Max Temperature 35 °F 39 °F 51 °F (2011)
Min Temperature 32 °F 33 °F 26 °F (2001)
Degree Days  
Heating Degree Days 32    
Moisture  
Dew Point 24 °F    
Average Humidity 67    
Maximum Humidity 93    
Minimum Humidity 52    
Precipitation  
Precipitation 0.01 in - - ()
Sea Level Pressure  
Sea Level Pressure 30.29 in    
Wind  
Wind Speed 14 mph (WNW)    
Max Wind Speed 24 mph    
Max Gust Speed 34 mph    
Visibility 8 miles    
Events      
Averages and records for this station are not official NWS values.
T = Trace of Precipitation, MM = Missing Value Source: NWS Daily Summary

Daily Weather History Graph

Daily Weather History Graph

Search for Another Location

Airport or City:

Astronomy

Nov. 11, 2013 Rise Set
Actual Time 9:04 AM AKST 5:30 PM AKST
Civil Twilight 8:22 AM AKST 6:12 PM AKST
Nautical Twilight 7:36 AM AKST 6:57 PM AKST
Astronomical Twilight 6:52 AM AKST 7:41 PM AKST
Moon 3:15 PM AKST (11/11) 1:56 AM AKST (11/11)
Length of Visible Light 9h 50m
Length of Day
8h 26m
Waxing Gibbous, 68% of the Moon is Illuminated
Nov 11
Waxing Gibbous
Nov 17
Full
Nov 25
Last Quarter
Dec 2
New
Dec 9
First Quarter

Hourly Weather History & Observations

Time (AKST) Temp. Windchill Dew Point Humidity Pressure Visibility Wind Dir Wind Speed Gust Speed Precip Events Conditions
12:16 AM 35.6 °F 27.5 °F 28.4 °F 75% 30.17 in 9.0 mi NW 11.5 mph - N/A   Overcast
12:36 AM 35.6 °F 27.5 °F 26.6 °F 70% 30.16 in 10.0 mi WSW 11.5 mph 26.5 mph N/A   Scattered Clouds
12:56 AM 35.6 °F 23.7 °F 26.6 °F 70% 30.17 in 4.0 mi WSW 24.2 mph 28.8 mph 0.01 in   Scattered Clouds
1:16 AM 33.8 °F 24.3 °F 30.2 °F 87% 30.17 in 6.0 mi WSW 13.8 mph 19.6 mph N/A   Mostly Cloudy
1:36 AM 33.8 °F 24.8 °F 28.4 °F 81% 30.18 in 2.5 mi WSW 12.7 mph - N/A   Mostly Cloudy
1:56 AM 35.6 °F 24.8 °F 28.4 °F 75% 30.18 in 7.0 mi West 19.6 mph 25.3 mph N/A   Mostly Cloudy
2:16 AM 33.8 °F 24.3 °F 30.2 °F 87% 30.19 in 5.0 mi WSW 13.8 mph 20.7 mph N/A   Mostly Cloudy
2:36 AM 35.6 °F 26.6 °F 28.4 °F 75% 30.18 in 10.0 mi SW 13.8 mph - N/A   Scattered Clouds
2:56 AM 35.6 °F 27.1 °F 28.4 °F 75% 30.19 in 10.0 mi WSW 12.7 mph 19.6 mph N/A   Mostly Cloudy
3:16 AM 33.8 °F 26.4 °F 28.4 °F 81% 30.21 in 1.8 mi WNW 9.2 mph 24.2 mph N/A   Mostly Cloudy
3:36 AM 32.0 °F 22.5 °F 30.2 °F 93% 30.21 in 2.5 mi West 12.7 mph - N/A   Mostly Cloudy
3:56 AM 33.8 °F 23.2 °F 30.2 °F 87% 30.21 in 7.0 mi West 17.3 mph - N/A   Mostly Cloudy
4:16 AM 32.0 °F 22.1 °F 28.4 °F 87% 30.21 in 1.5 mi West 13.8 mph 18.4 mph N/A   Mostly Cloudy
4:36 AM 32.0 °F 26.4 °F 28.4 °F 87% 30.23 in 9.0 mi West 5.8 mph - N/A   Mostly Cloudy
4:56 AM 32.0 °F 28.7 °F 30.2 °F 93% 30.24 in 1.8 mi West 3.5 mph - N/A   Mostly Cloudy
5:16 AM 32.0 °F 24.2 °F 28.4 °F 87% 30.24 in 3.0 mi West 9.2 mph 17.3 mph N/A   Scattered Clouds
5:36 AM 33.8 °F 26.4 °F 28.4 °F 81% 30.25 in 4.0 mi WSW 9.2 mph - N/A   Mostly Cloudy
5:56 AM 33.8 °F 27.0 °F 26.6 °F 75% 30.24 in 10.0 mi WNW 8.1 mph 17.3 mph N/A   Mostly Cloudy
6:16 AM 33.8 °F 24.8 °F 24.8 °F 70% 30.25 in 7.0 mi West 12.7 mph 29.9 mph N/A   Overcast
6:36 AM 32.0 °F 20.8 °F 26.6 °F 80% 30.25 in 10.0 mi WSW 17.3 mph 23.0 mph N/A   Mostly Cloudy
6:56 AM 33.8 °F 22.2 °F 28.4 °F 81% 30.25 in 10.0 mi West 20.7 mph 24.2 mph N/A   Mostly Cloudy
7:16 AM 32.0 °F 21.2 °F 28.4 °F 87% 30.26 in 2.0 mi West 16.1 mph 24.2 mph N/A   Overcast
7:36 AM 32.0 °F 26.4 °F 26.6 °F 80% 30.28 in 6.0 mi West 5.8 mph 23.0 mph N/A   Mostly Cloudy
7:56 AM 32.0 °F 23.6 °F 26.6 °F 80% 30.28 in 7.0 mi West 10.4 mph - N/A   Mostly Cloudy
8:16 AM 33.8 °F 24.3 °F 26.6 °F 75% 30.28 in 10.0 mi West 13.8 mph 20.7 mph N/A   Overcast
8:36 AM 33.8 °F 25.8 °F 21.2 °F 60% 30.28 in 10.0 mi WNW 10.4 mph 19.6 mph N/A   Overcast
8:56 AM 33.8 °F 25.3 °F 23.0 °F 65% 30.29 in 10.0 mi WNW 11.5 mph 20.7 mph N/A   Mostly Cloudy
9:16 AM 33.8 °F 25.3 °F 21.2 °F 60% 30.29 in 10.0 mi WNW 11.5 mph 20.7 mph N/A   Overcast
9:36 AM 33.8 °F 24.8 °F 23.0 °F 65% 30.29 in 10.0 mi NW 12.7 mph 16.1 mph N/A   Overcast
9:56 AM 33.8 °F 24.8 °F 19.4 °F 56% 30.29 in 10.0 mi WNW 12.7 mph 20.7 mph N/A   Overcast
10:16 AM 33.8 °F 24.3 °F 19.4 °F 56% 30.29 in 10.0 mi WNW 13.8 mph 17.3 mph N/A   Overcast
10:36 AM 33.8 °F 25.3 °F 19.4 °F 56% 30.30 in 10.0 mi NW 11.5 mph 21.9 mph N/A   Overcast
10:56 AM 33.8 °F 23.5 °F 21.2 °F 60% 30.30 in 9.0 mi WNW 16.1 mph 25.3 mph N/A   Overcast
11:16 AM 33.8 °F 23.9 °F 21.2 °F 60% 30.31 in 7.0 mi WNW 15.0 mph 24.2 mph N/A   Mostly Cloudy
11:36 AM 33.8 °F 23.5 °F 21.2 °F 60% 30.31 in 10.0 mi NW 16.1 mph 24.2 mph N/A   Overcast
11:56 AM 33.8 °F 24.3 °F 21.2 °F 60% 30.31 in 8.0 mi WNW 13.8 mph 25.3 mph N/A   Mostly Cloudy
12:16 PM 33.8 °F 24.8 °F 21.2 °F 60% 30.31 in 10.0 mi NW 12.7 mph 21.9 mph N/A   Overcast
12:36 PM 33.8 °F 23.2 °F 19.4 °F 56% 30.31 in 10.0 mi WNW 17.3 mph - N/A   Overcast
12:56 PM 33.8 °F 24.8 °F 19.4 °F 56% 30.31 in 10.0 mi WNW 12.7 mph 25.3 mph N/A   Overcast
1:16 PM 33.8 °F 22.8 °F 19.4 °F 56% 30.31 in 10.0 mi NW 18.4 mph 26.5 mph N/A   Overcast
1:36 PM 33.8 °F 22.8 °F 21.2 °F 60% 30.31 in 4.0 mi NW 18.4 mph 27.6 mph N/A   Mostly Cloudy
1:56 PM 33.8 °F 23.5 °F 23.0 °F 65% 30.32 in 3.0 mi NNW 16.1 mph 23.0 mph N/A   Overcast
2:16 PM 32.0 °F 19.8 °F 24.8 °F 75% 30.31 in 2.5 mi NW 20.7 mph 27.6 mph N/A   Overcast
2:36 PM 33.8 °F 23.2 °F 21.2 °F 60% 30.31 in 10.0 mi WNW 17.3 mph 25.3 mph N/A   Overcast
2:56 PM 33.8 °F 23.2 °F 21.2 °F 60% 30.31 in 10.0 mi WNW 17.3 mph 25.3 mph N/A   Overcast
3:16 PM 33.8 °F 23.5 °F 23.0 °F 65% 30.31 in 8.0 mi WNW 16.1 mph 21.9 mph N/A   Overcast
3:36 PM 33.8 °F 24.3 °F 23.0 °F 65% 30.31 in 10.0 mi WNW 13.8 mph 21.9 mph N/A   Overcast
3:56 PM 33.8 °F 22.5 °F 21.2 °F 60% 30.31 in 10.0 mi WNW 19.6 mph 24.2 mph N/A   Overcast
4:16 PM 33.8 °F 23.9 °F 21.2 °F 60% 30.31 in 10.0 mi WNW 15.0 mph 34.5 mph N/A   Overcast
4:36 PM 33.8 °F 25.3 °F 21.2 °F 60% 30.32 in 10.0 mi WNW 11.5 mph 23.0 mph N/A   Overcast
4:56 PM 33.8 °F 24.8 °F 23.0 °F 65% 30.33 in 10.0 mi WNW 12.7 mph 23.0 mph N/A   Overcast
5:16 PM 33.8 °F 26.4 °F 21.2 °F 60% 30.34 in 10.0 mi WNW 9.2 mph 17.3 mph N/A   Overcast
5:36 PM 33.8 °F 24.8 °F 19.4 °F 56% 30.34 in 10.0 mi West 12.7 mph 20.7 mph N/A   Overcast
5:56 PM 33.8 °F 25.3 °F 17.6 °F 52% 30.35 in 10.0 mi West 11.5 mph 26.5 mph N/A   Overcast
6:16 PM 33.8 °F 25.3 °F 19.4 °F 56% 30.34 in 10.0 mi West 11.5 mph 26.5 mph N/A   Overcast
6:36 PM 33.8 °F 23.2 °F 19.4 °F 56% 30.34 in 10.0 mi West 17.3 mph 24.2 mph N/A   Overcast
6:56 PM 33.8 °F 24.8 °F 21.2 °F 60% 30.35 in 10.0 mi West 12.7 mph 27.6 mph N/A   Overcast
7:16 PM 33.8 °F 23.9 °F 19.4 °F 56% 30.34 in 10.0 mi West 15.0 mph 23.0 mph N/A   Overcast
7:36 PM 33.8 °F 25.3 °F 21.2 °F 60% 30.35 in 10.0 mi West 11.5 mph 25.3 mph N/A   Overcast
7:56 PM 33.8 °F 23.9 °F 21.2 °F 60% 30.35 in 10.0 mi West 15.0 mph 23.0 mph N/A   Overcast
8:16 PM 33.8 °F 25.3 °F 21.2 °F 60% 30.34 in 10.0 mi West 11.5 mph 25.3 mph N/A   Overcast
8:36 PM 33.8 °F 25.3 °F 21.2 °F 60% 30.35 in 10.0 mi West 11.5 mph 20.7 mph N/A   Overcast
8:56 PM 33.8 °F 24.8 °F 19.4 °F 56% 30.36 in 10.0 mi WNW 12.7 mph 18.4 mph N/A   Overcast
9:16 PM 33.8 °F 25.8 °F 19.4 °F 56% 30.35 in 10.0 mi WNW 10.4 mph 23.0 mph N/A   Overcast
9:36 PM 33.8 °F 24.8 °F 21.2 °F 60% 30.35 in 10.0 mi WNW 12.7 mph 18.4 mph N/A   Overcast
9:56 PM 33.8 °F 23.2 °F 21.2 °F 60% 30.34 in 10.0 mi WNW 17.3 mph 24.2 mph N/A   Mostly Cloudy
10:16 PM 33.8 °F 22.8 °F 23.0 °F 65% 30.33 in 10.0 mi WNW 18.4 mph 24.2 mph N/A   Partly Cloudy
10:36 PM 33.8 °F 22.2 °F 21.2 °F 60% 30.33 in 10.0 mi NW 20.7 mph 25.3 mph N/A   Clear
10:56 PM 33.8 °F 22.2 °F 23.0 °F 65% 30.32 in 10.0 mi WNW 20.7 mph 29.9 mph N/A   Clear
11:16 PM 33.8 °F 23.2 °F 23.0 °F 65% 30.32 in 10.0 mi West 17.3 mph 25.3 mph N/A   Clear
11:36 PM 33.8 °F 24.3 °F 21.2 °F 60% 30.33 in 10.0 mi WNW 13.8 mph 27.6 mph N/A   Clear
11:56 PM 33.8 °F 23.2 °F 21.2 °F 60% 30.32 in 10.0 mi West 17.3 mph 28.8 mph N/A   Clear